Satellite-Ground Cal/Val Site Overpasses Predictions

Prediction of Satellite NPP Overpassing Cal/Val Site: Antarctic Dome C

Ground Cal/Val Site Location: Latitude: -75.10, Longitude: 123.35; Satellite-Ground Site NADIR distance within 100 km.

Table of predicted overpasses for the next 14.0 days since TLE Epoch: 9/14/2024
Interval Starting Time Ending Time Minimum Distance Time Minimum Distance (km)
1 09/14/2024 14:36:21 09/14/2024 14:36:37 09/14/2024 14:36:29 83.89
2 09/15/2024 07:37:53 09/15/2024 07:38:20 09/15/2024 07:38:07 38.43
3 09/16/2024 07:19:05 09/16/2024 07:19:25 09/16/2024 07:19:15 71.73
4 09/18/2024 15:01:15 09/18/2024 15:01:39 09/18/2024 15:01:27 59.64
5 09/19/2024 14:42:23 09/19/2024 14:42:49 09/19/2024 14:42:36 49.75
6 09/20/2024 07:44:03 09/20/2024 07:44:22 09/20/2024 07:44:13 72.75
7 09/21/2024 07:25:08 09/21/2024 07:25:35 09/21/2024 07:25:22 35.43
8 09/23/2024 15:07:30 09/23/2024 15:07:37 09/23/2024 15:07:33 96.36
9 09/24/2024 14:48:26 09/24/2024 14:48:55 09/24/2024 14:48:40 15.19
